Track STSS DEMO 2 (USA 209) now! 10-day predictions STSS DEMO 2 (USA 209) is classified as:
1 35938U 09052B 24316.83697914 0.00000050 00000-0 23526-3 0 06 2 35938 57.9918 294.8337 0011307 357.8023 2.2885 12.74839407 05